Orbital Elements at Epoch 2459200.5 (2020-Dec-17.0) TDB
Reference: JPL 21 (heliocentric ecliptic J2000)
Element | Value | Uncertainty (1-sigma) | Units |
e | .2660522567664972 | 5.7252e-08 | |
a | 2.756472176691591 | 1.5751e-08 | au |
q | 2.023106533368734 | 1.6001e-07 | au |
i | 16.91488026463534 | 7.1931e-06 | deg |
node | 358.4362560977586 | 1.2908e-05 | deg |
peri | 309.2430691591696 | 1.8137e-05 | deg |
M | 40.35708285608592 | 9.97e-06 | deg |
tp | 2459013.110128978084 (2020-Jun-12.61012898) | 4.6783e-05 | TDB |
period | 1671.586467447477 4.58 | 1.4328e-05 3.923e-08 | d yr |
n | .2153642704165476 | 1.8459e-09 | deg/d |
Q | 3.489837820014447 | 1.9942e-08 | au |
|
| | Orbit Determination Parameters
Additional Information
|